Date,TemperatureHighF,TemperatureAvgF,TemperatureLowF,DewpointHighF,DewpointAvgF,DewpointLowF,HumidityHigh,HumidityAvg,HumidityLow,PressureMaxIn,PressureMinIn,WindSpeedMaxMPH,WindSpeedAvgMPH,GustSpeedMaxMPH,PrecipitationSumIn
2013-1-1,76.9,65.1,52.8,61.0,58.0,51.0,97,79,57,30.21,30.03,7,1,0,0.00
2013-1-2,78.6,68.7,63.2,69.0,65.0,61.0,96,88,71,30.06,29.98,3,0,0,0.00
2013-1-3,74.4,64.7,59.0,68.0,63.3,58.0,98,95,79,30.15,30.02,6,1,0,0.40
2013-1-4,61.4,58.6,55.7,59.0,57.2,55.0,97,95,90,30.27,30.14,5,2,0,0.12
2013-1-5,72.9,63.7,56.6,62.0,58.5,52.0,96,83,69,30.29,30.17,5,2,0,0.00
2013-1-6,79.1,66.9,61.2,71.0,64.2,60.0,98,91,75,30.19,30.06,6,1,0,0.06
2013-1-7,65.0,62.4,60.0,64.0,59.9,56.0,96,91,81,30.19,30.09,10,2,0,0.03
2013-1-8,80.7,70.3,61.0,69.0,65.0,60.0,97,84,64,30.20,30.10,6,2,0,0.01
2013-1-9,82.8,74.0,67.6,71.0,68.1,66.0,97,83,61,30.27,30.15,7,2,0,0.00
2013-1-10,80.5,73.0,67.3,70.0,66.8,64.0,97,82,60,30.27,30.18,8,2,0,0.00
2013-1-11,82.5,72.4,65.9,69.0,65.1,63.0,95,79,52,30.25,30.12,7,1,0,0.00
2013-1-12,80.5,71.9,65.5,69.0,66.4,64.0,95,84,63,30.17,30.06,8,1,0,0.01
2013-1-13,81.4,71.5,65.7,68.0,65.5,64.0,94,82,59,30.15,30.05,7,1,0,0.00
2013-1-14,80.7,70.4,62.1,66.0,62.6,59.0,94,78,51,30.17,30.10,4,0,0,0.00
2013-1-15,81.0,69.3,60.2,67.0,63.3,59.0,97,83,59,30.13,30.04,4,1,0,0.01
2013-1-16,82.0,70.4,63.2,67.0,64.1,62.0,97,82,51,30.09,29.99,5,0,0,0.00
2013-1-17,70.4,62.8,54.1,69.0,59.0,46.0,97,88,68,30.14,29.98,11,2,0,0.09
2013-1-18,62.6,54.3,42.6,55.0,46.8,36.0,81,76,67,30.30,30.14,10,3,0,0.00
2013-1-19,73.3,63.2,55.1,61.0,55.3,49.0,85,76,65,30.27,30.12,7,2,0,0.00
2013-1-20,73.9,66.2,60.4,63.0,60.2,57.0,91,81,68,30.17,30.03,6,1,0,0.00
2013-1-21,73.2,65.3,60.1,64.0,58.6,53.0,91,79,68,30.09,30.01,7,1,0,0.00
2013-1-22,65.6,58.9,48.7,53.0,42.3,32.0,80,57,31,30.27,30.07,7,2,0,0.00
2013-1-23,68.0,56.3,47.5,45.0,39.9,34.0,87,57,32,30.36,30.26,6,1,0,0.00
2013-1-24,71.0,57.3,45.0,54.0,48.5,43.0,95,75,41,30.34,30.24,8,1,0,0.00
2013-1-25,74.4,59.8,50.0,58.0,51.3,48.0,98,77,42,30.31,30.18,5,0,0,0.01
2013-1-26,72.8,61.4,49.0,59.0,55.2,48.0,97,82,53,30.28,30.17,7,1,0,0.01
2013-1-27,76.7,64.9,52.6,61.0,56.0,51.0,98,76,46,30.30,30.20,6,1,0,0.01
2013-1-28,80.6,69.9,62.9,66.0,62.6,59.0,94,79,53,30.31,30.19,6,1,0,0.00
2013-1-29,83.3,70.5,62.7,69.0,65.0,61.0,97,84,58,30.22,30.07,6,2,0,0.00
2013-1-30,79.3,72.3,66.4,68.0,66.3,64.0,91,82,64,30.07,29.90,9,3,0,0.00
2013-1-31,70.4,57.0,47.6,67.0,45.2,32.0,96,67,37,30.23,29.91,16,3,0,0.15